Location: Irma
(52.9170°N, 111.2330°W)
Time: 08:05:12
(UTC-06:00)

Cosmos 1633 Rocket - Visible Passes

Search period start: 28 March 2017 00:00
Search period end: 07 April 2017 00:00
Orbit: 608 x 623 km, 82.5° (Epoch: 26 March)

Date Brightness Start Highest point End Pass type
(mag) Time Alt. Az. Time Alt. Az. Time Alt. Az.
28 Mar 3.6 22:05:09 10° N 22:09:22 41° ENE 22:09:44 40° E visible
28 Mar 4.8 23:43:17 10° NNW 23:46:50 27° W 23:46:50 27° W visible
29 Mar 5.2 20:45:41 10° NE 20:47:04 11° NE 20:48:28 10° ENE visible
29 Mar 3.0 22:21:22 10° N 22:25:49 67° ENE 22:26:17 62° ESE visible
30 Mar 5.4 00:00:14 10° NW 00:03:06 17° W 00:03:23 17° W visible
30 Mar 4.8 21:00:51 10° NNE 21:03:47 17° ENE 21:05:45 13° E visible
30 Mar 3.1 22:37:42 10° NNW 22:42:10 75° W 22:42:52 60° SSW visible
31 Mar 5.9 00:18:14 10° WNW 00:19:06 11° WNW 00:19:58 10° W visible
31 Mar 4.3 21:16:41 10° N 21:20:25 26° ENE 21:22:21 19° ESE visible
31 Mar 3.9 22:54:11 10° NNW 22:58:26 45° W 22:59:27 38° SW visible
01 Apr 3.6 21:32:44 10° N 21:36:57 39° ENE 21:38:58 25° ESE visible
01 Apr 4.8 23:10:49 10° NNW 23:14:36 28° W 23:16:05 23° WSW visible
02 Apr 3.1 21:48:57 10° N 21:53:23 65° ENE 21:55:38 28° SSE visible
02 Apr 5.5 23:27:44 10° NW 23:30:42 18° W 23:32:44 13° WSW visible
03 Apr 3.1 22:05:17 10° NNW 22:09:44 78° W 22:12:19 25° S visible
03 Apr 5.9 23:45:32 10° WNW 23:46:43 11° WNW 23:47:54 10° W visible
04 Apr 4.3 20:44:17 10° N 20:47:58 25° ENE 20:51:38 10° ESE visible
04 Apr 4.0 22:21:44 10° NNW 22:26:01 47° W 22:29:03 18° SSW visible
05 Apr 3.7 21:00:20 10° N 21:04:31 38° ENE 21:08:39 10° SE visible
05 Apr 4.9 22:38:22 10° NNW 22:42:12 29° W 22:45:49 11° SSW visible
06 Apr 3.1 21:16:32 10° N 21:20:57 62° ENE 21:25:20 10° SSE visible
06 Apr 5.6 22:55:15 10° NW 22:58:18 18° W 23:01:19 10° SW visible
